Terminal Aerodrome Forecast
Issued by NWS Oklahoma City, OK

Home | Current Version | Previous Version | Text Only | Print | Product List | Glossary On
Versions: 1 2 3 4 5 6 7 8 9 10 11 12 13 14 15 16 17 18 19 20 21 22 23 24 25 26 27 28
000
FTUS44 KOUN 012328
TAFOUN
TAF
KOUN 012328Z 0200/0224 16013KT P6SM SCT250
     FM021000 17011KT P6SM SCT025 BKN200 PROB30 0212/0216 -TSRA
      BKN025CB
     FM021600 18014G22KT P6SM SCT050 SCT250=

USA.gov is the U.S. government's official web portal to all federal, state and local government web resources and services.